Starlink 11365

operational
NORAD ID: 62886 Int'l Des: 2025-024 Owner: SPXS Country: US Constellation: starlink
LEOCIRCULAR

Starlink 11365について

説明を読み込み中...

リアルタイム位置

3D地球を読み込み中...

次回通過

高度履歴

Altitude vs Time

uPlot chart will show altitude changes over time

軌道要素

1 62886U 25024H 25350.99121153 .00310147 00000-0 23321-2 0 9998
2 62886 43.0000 319.6336 0001387 261.4332 98.6379 15.70833895 50466
Epoch: Dec 16, 2025 • Age: 34 hours

現在のステータス

高度 355.2 km
速度 7.70 km/s
衛星直下点 29.94°N, 142.84°W
打ち上げ日 Feb 4, 2025
運用期間 0.8 years
タイプ internet

技術仕様

分類 Payload
質量 960.00 kg
乾燥質量 910.00 kg
総質量 960.00 kg
長さ 0.30 m
直径 4.10 m
スパン 29.00 m
形状 Box + pan
製造者 SPXS
バスタイプ Starlink V2MD
フェーズステータス In Orbit
所有者/国 SPXS/US

大規模コンステレーション

Loading constellations...